Location: Haliburton Scout Reserve
(45.0900°N, 78.3200°W)
Time: 01:42:12
(UTC-04:00)

ESTCUBE 1 - Pass Details

Date: 21 May 2022
Orbit: 644 x 659 km, 97.9° (Epoch: 27 June)

Event Time Altitude Azimuth Distance (km) Brightness Sun altitude
Exits shadow 23:22:07 47° 167° (SSE) 864 ? -20.1°
Maximum altitude 23:23:24 89° 256° (WSW) 661 ? -20.2°
Drops below altitude 10° 23:27:56 10° 347° (NNW) 2,069 ? -20.5°
Sets 23:30:09 0° 347° (NNW) 2,982 ? -20.7°
